Home > Weather > Kyiv > Past weeks

Flag for Ukraine Past Weather in Kyiv, Ukraine — Yesterday and Last 2 Weeks

Now
61 °F

Clear.


Feels Like: 61 °F
Forecast: 65 / 87 °F
Wind: No wind

Location: Kyiv

Current Time: Aug 29, 2016 at 3:22:39 AM

Latest Report: Aug 29, 2016 at 2:30 AM


Visibility: 10 mi

Pressure: 30.09 "Hg

Humidity: 83%

Dew Point: 55 °F

Location of KyivLocation

Past Weather in Kyiv — Graph

°F

Kyiv Temperature Yesterday

Maximum temperature yesterday: 88 °F (at 3:30 PM)
Minimum temperature yesterday: 55 °F (at 4:00 AM)
Average temperature yesterday: 72 °F

High & Low Weather Summary for the Past Weeks

 TemperatureHumidityPressure
High88 °F (Aug 23, 3:30 PM)100% (Aug 16, 5:30 AM)30.30 "Hg (Aug 16, 5:30 AM)
Low50 °F (Aug 16, 5:30 AM)33% (Aug 28, 5:00 PM)29.86 "Hg (Aug 18, 12:00 AM)
Average68 °F71%30.07 "Hg
* Reported Aug 14 2:00 AM — Aug 29 2:00 AM, Kyiv, Weather by CustomWeather, © 2016

Note: Actual official high and low records may vary slightly from our data, if they occured in-between our weather recording intervals... More about our weather records

Advertising

Kyiv Weather History for the Previous 24 Hours

Scroll right to see more
 ConditionsComfort  
Time TempWeatherWind HumidityBarometerVisibility
2:00 AM
Mon, Aug 29
61 °FClear.No wind83%30.09 "Hg10 mi
1:30 AM63 °FClear.No wind77%30.09 "Hg10 mi
1:00 AM63 °FClear.No wind77%30.09 "Hg10 mi
12:30 AM63 °FClear.No wind83%30.09 "Hg10 mi
12:00 AM66 °FClear.No wind73%30.09 "Hg10 mi
11:30 PM
Sun, Aug 28
64 °FClear.No wind78%30.09 "Hg10 mi
11:00 PM66 °FClear.No wind73%30.09 "Hg10 mi
10:30 PM68 °FClear.1 mph64%30.09 "Hg10 mi
10:00 PM68 °FClear.No wind64%30.09 "Hg10 mi
9:30 PM68 °FClear.No wind69%30.09 "Hg10 mi
9:00 PM70 °FClear.No wind64%30.09 "Hg10 mi
8:30 PM72 °FSunny.No wind61%30.09 "Hg10 mi
8:00 PM77 °FSunny.3 mph47%30.09 "Hg10 mi
7:30 PM81 °FSunny.3 mph45%30.09 "Hg10 mi
7:00 PM84 °FSunny.3 mph37%30.09 "Hg10 mi
6:30 PM86 °FSunny.1 mph38%30.09 "Hg10 mi
6:00 PM86 °FSunny.3 mph35%30.09 "Hg10 mi
5:30 PM86 °FPassing clouds.3 mph35%30.09 "HgN/A
5:00 PM88 °FSunny.3 mph33%30.12 "Hg10 mi
4:30 PM88 °FSunny.6 mph35%30.12 "Hg10 mi
4:00 PM88 °FSunny.3 mph35%30.12 "Hg10 mi
3:30 PM88 °FSunny.3 mph38%30.12 "Hg10 mi
3:00 PM86 °FPassing clouds.3 mph38%30.15 "HgN/A
2:30 PM86 °FPassing clouds.3 mph40%30.15 "HgN/A
2:00 PM86 °FPassing clouds.3 mph40%30.15 "HgN/A
1:30 PM86 °FPassing clouds.3 mph43%30.15 "HgN/A
1:00 PM84 °FSunny.3 mph40%30.18 "Hg10 mi
12:30 PM84 °FSunny.3 mph43%30.18 "Hg10 mi
12:00 PM82 °FPassing clouds.3 mph45%30.18 "HgN/A
11:30 AM81 °FPassing clouds.3 mph45%30.18 "HgN/A
11:00 AM81 °FPassing clouds.3 mph48%30.18 "HgN/A
10:30 AM79 °FPassing clouds.3 mph51%30.18 "HgN/A
10:00 AM77 °FPassing clouds.3 mph54%30.18 "HgN/A
9:30 AM75 °FPassing clouds.6 mph57%30.18 "HgN/A
9:00 AM73 °FSunny.3 mph65%30.18 "Hg10 mi
8:30 AM70 °FPassing clouds.3 mph73%30.18 "HgN/A
8:00 AM66 °FSunny.3 mph83%30.18 "Hg10 mi
7:30 AM63 °FSunny.3 mph88%30.18 "Hg10 mi
7:00 AM59 °FClear.3 mph94%30.18 "Hg10 mi
6:30 AM55 °FClear.3 mph100%30.18 "Hg10 mi
6:00 AM55 °FClear.No wind100%30.18 "Hg6 mi
5:30 AM55 °FClear.No wind100%30.18 "Hg6 mi
5:00 AM57 °FClear.1 mph94%30.18 "Hg6 mi
4:30 AM57 °FClear.No wind94%30.18 "Hg6 mi
4:00 AM55 °FClear.No wind100%30.18 "Hg6 mi
3:30 AM57 °FClear.No wind94%30.18 "Hg6 mi
3:00 AM57 °FClear.No wind100%30.18 "Hg10 mi
Weather by CustomWeather, © 2016

See weather overviewHow to use our weather pages